Location: Ottawa
(45.4170°N, 75.7000°W)
Time: 07:08:23
(UTC-04:00)

Iridium 91 - Visible Passes

Search period start: 01 November 2014 00:00
Search period end: 10 November 2014 23:00
Orbit: 775 x 780 km, 86.4° (Epoch: 31 October)

Date Brightness Start Highest point End Pass type
(mag) Time Alt. Az. Time Alt. Az. Time Alt. Az.
01 Nov 8.8 06:09:02 10° ENE 06:09:37 10° ENE 06:10:13 10° ENE visible
01 Nov 7.3 19:12:39 14° NE 19:12:39 14° NE 19:13:41 10° NNE visible
01 Nov 7.2 20:45:11 10° SSW 20:53:03 26° NNW 20:55:24 10° N visible
02 Nov 7.3 17:37:22 11° ENE 17:37:22 11° ENE 17:38:13 10° ENE visible
02 Nov 5.6 19:11:29 10° S 19:17:31 64° NNE 19:21:56 10° N visible
02 Nov 8.3 20:55:47 10° W 20:58:09 13° WNW 21:00:33 10° NW visible
03 Nov 7.9 05:39:37 10° NNE 05:43:54 25° ENE 05:48:09 10° SE visible
03 Nov 5.7 18:38:17 10° SSE 18:43:15 48° E 18:48:14 10° NNE visible
03 Nov 7.7 20:20:11 10° SW 20:24:14 23° WNW 20:28:18 10° NNW visible
04 Nov 8.4 05:07:08 10° NE 05:10:00 15° ENE 05:12:52 10° ESE visible
04 Nov 6.3 18:05:35 10° SE 18:09:55 27° E 18:14:15 10° NNE visible
04 Nov 6.8 19:45:36 10° SSW 19:50:27 39° W 19:55:19 10° NNW visible
05 Nov 6.2 06:12:38 10° N 06:17:49 62° E 06:22:57 10° SSE visible
05 Nov 6.9 17:33:40 10° ESE 17:36:42 16° ENE 17:39:45 10° NE visible
05 Nov 5.7 19:11:37 10° S 19:16:48 69° W 19:22:00 10° N visible
06 Nov 7.3 05:39:22 10° NNE 05:44:08 35° E 05:48:52 10° SE visible
06 Nov 5.4 18:38:07 10° S 18:43:16 68° E 18:48:27 10° N visible
06 Nov 8.2 20:21:19 10° WSW 20:24:32 16° WNW 20:27:46 10° NNW visible
07 Nov 8.2 05:06:29 10° NNE 05:10:20 20° ENE 05:14:09 10° ESE visible
07 Nov 5.9 18:05:06 10° SSE 18:09:52 38° E 18:14:39 10° NNE visible
07 Nov 7.4 19:46:14 10° SW 19:50:40 28° WNW 19:55:07 10° NNW visible
08 Nov 8.6 04:34:34 10° NE 04:36:22 12° ENE 04:38:10 10° E visible
08 Nov 5.6 06:12:41 10° N 06:17:55 87° E 06:23:08 10° S visible
08 Nov 6.6 17:32:40 10° SE 17:36:35 22° E 17:40:30 10° NNE visible
08 Nov 6.4 19:11:55 10° SSW 19:16:56 48° W 19:21:59 10° N visible
09 Nov 6.6 05:39:16 10° N 05:44:19 49° E 05:49:21 10° SSE visible
09 Nov 5.5 18:38:07 10° S 18:43:20 86° W 18:48:34 10° N visible
09 Nov 8.5 20:23:11 10° W 20:24:54 12° WNW 20:26:37 10° NW visible
10 Nov 7.6 05:06:07 10° NNE 05:10:35 28° ENE 05:15:02 10° SE visible
10 Nov 5.6 18:04:48 10° SSE 18:09:51 54° E 18:14:55 10° NNE visible
10 Nov 7.9 19:47:08 10° WSW 19:50:56 20° WNW 19:54:45 10° NNW visible
